|
|
Asteroid 2012 CT
(Preview)
Orbital elements:
2012 CT Earth MOID = 0.1986 AU
Epoch 2012 Mar. 14.0 TT = JDT 2456000.5 MPC
M 18.81453 (2000.0) P Q
n 0.28286075 Peri. 325.00863 -0.27565374 -0.94492859
a 2.2983752 Node 140.14765 +0.93275986 -0.30729581
e 0.5022374 Incl. 15.98058 +0.23232317 +0.11260220
P 3.48 H 21.4 G 0...
|
Blobrana
|
0
|
|
|
|
|
Asteroid 2012 CS
(Preview)
Orbital elements:
2012 CS Earth MOID = 0.0059 AU
Epoch 2012 Mar. 14.0 TT = JDT 2456000.5 MPC
M 25.18672 (2000.0) P Q
n 0.26937514 Peri. 238.40611 +0.68383297 -0.72962788
a 2.3744573 Node 168.44738 +0.67594107 +0.63145705
e 0.7066474 Incl. 1.13113 +0.27472921 +0.26249791
P 3.66 H 23.0 G 0....
|
Blobrana
|
0
|
|
|
|
|
Asteroid 2012 CR
(Preview)
Orbital elements:
2012 CR Earth MOID = 0.0896 AU
Epoch 2012 Mar. 14.0 TT = JDT 2456000.5 MPC
M 357.11987 (2000.0) P Q
n 0.45937071 Peri. 35.30162 -0.98097217 +0.19357562
a 1.6635168 Node 155.84696 -0.18544980 -0.91153832
e 0.3469795 Incl. 2.08719 -0.05746278 -0.36280349
P 2.15 H 21.8 G 0....
|
Blobrana
|
0
|
|
|
|
|
Asteroid 2012 CU
(Preview)
Orbital elements:
2012 CU Earth MOID = 0.0031 AU
Epoch 2012 Mar. 14.0 TT = JDT 2456000.5 MPC
M 33.76087 (2000.0) P Q
n 0.42742959 Peri. 268.12695 +0.16452569 -0.98637254
a 1.7453921 Node 172.40325 +0.90711825 +0.15102110
e 0.5069591 Incl. 0.31022 +0.38738583 +0.06528278
P 2.31 H 25.8 G 0....
|
Blobrana
|
1
|
|
|
|
|
Asteroid 2012 CA
(Preview)
Orbital elements:
2012 CA Earth MOID = 0.0913 AU
Epoch 2012 Mar. 14.0 TT = JDT 2456000.5 MPC
M 57.76965 (2000.0) P Q
n 0.70849522 Peri. 320.98230 -0.13345895 -0.88843725
a 1.2461723 Node 131.53030 +0.99068735 -0.13165414
e 0.1625177 Incl. 35.91946 +0.02696810 +0.43971176
P 1.39 H 23.7 G 0...
|
Blobrana
|
1
|
|
|
|
|
Asteroid 2012 CD
(Preview)
Orbital elements:
2012 CD Earth MOID = 0.1445 AU
Epoch 2012 Mar. 14.0 TT = JDT 2456000.5 MPC
M 350.88299 (2000.0) P Q
n 0.63421589 Peri. 232.80802 -0.94839943 +0.11234691
a 1.3416667 Node 311.51322 +0.09593998 -0.78961473
e 0.2078878 Incl. 23.32682 -0.30221522 -0.60323026
P 1.55 H 24.2 G...
|
Blobrana
|
0
|
|
|
|
|
Asteroid 2012 BD124
(Preview)
Orbital elements:
2012 BD124 Earth MOID = 0.0910 AU
Epoch 2012 Mar. 14.0 TT = JDT 2456000.5 MPC
M 60.65138 (2000.0) P Q
n 0.35875423 Peri. 26.24695 +0.95801637 -0.28463853
a 1.9615740 Node 350.10360 +0.21493779 +0.79246832
e 0.5708029 Incl. 11.55678 +0.18975347 +0.53942087
P 2.75 H 18.9...
|
Blobrana
|
0
|
|
|
|
|
Asteroid 2012 BC124
(Preview)
Orbital elements:
2012 BC124 Earth MOID = 0.2379 AU
Epoch 2012 Mar. 14.0 TT = JDT 2456000.5 MPC
M 2.33299 (2000.0) P Q
n 0.30359704 Peri. 200.74283 -0.85064321 -0.24816253
a 2.1924904 Node 315.04090 +0.52512254 -0.44387963
e 0.4514336 Incl. 40.99096 -0.02554293 -0.86103788
P 3.25 H 19.8...
|
Blobrana
|
0
|
|
|
|
|
Asteroid 2012 BC20
(Preview)
Orbital elements:
2012 BC20 Earth MOID = 0.1473 AU
Epoch 2012 Mar. 14.0 TT = JDT 2456000.5 MPC
M 313.30405 (2000.0) P Q
n 0.61263243 Peri. 103.79179 -0.21148238 +0.95847406
a 1.3729964 Node 151.69350 -0.97737614 -0.20805676
e 0.2779104 Incl. 23.79497 +0.00332928 -0.19503809
P 1.61 H 18....
|
Blobrana
|
0
|
|
|
|
|
Asteroid 2012 BQ123
(Preview)
Orbital elements:
2012 BQ123 Earth MOID = 0.0116 AU
Epoch 2012 Mar. 14.0 TT = JDT 2456000.5 MPC
M 33.95956 (2000.0) P Q
n 0.33866686 Peri. 321.07108 +0.81123459 -0.58449676
a 2.0383914 Node 74.70382 +0.54057785 +0.73915239
e 0.6930825 Incl. 0.96150 +0.22287673 +0.33468983
P 2.91 H 24.7 G...
|
Blobrana
|
0
|
|
|
|
|
Asteroid 2012 BP123
(Preview)
Orbital elements:
2012 BP123 Earth MOID = 0.0193 AU
Epoch 2012 Mar. 14.0 TT = JDT 2456000.5 MPC
M 88.93807 (2000.0) P Q
n 0.82224222 Peri. 267.88822 +0.52356077 -0.85174580
a 1.1284168 Node 150.51215 +0.79718212 +0.48132282
e 0.1751079 Incl. 2.36679 +0.30064064 +0.20702037
P 1.20 H 27.1...
|
Blobrana
|
0
|
|
|
|
|
Asteroid 2012 BN123
(Preview)
Orbital elements:
2012 BN123 Earth MOID = 0.1089 AU
Epoch 2012 Mar. 14.0 TT = JDT 2456000.5 MPC
M 17.66002 (2000.0) P Q
n 0.24346477 Peri. 350.48821 -0.07693892 -0.98557020
a 2.5400678 Node 103.81261 +0.92466527 -0.12709496
e 0.5709824 Incl. 8.93190 +0.37292699 +0.11179558
P 4.05 H 23.3...
|
Blobrana
|
0
|
|
|
|
|
Asteroid 2012 BE124
(Preview)
Orbital elements:
2012 BE124 Earth MOID = 0.1948 AU
Epoch 2012 Mar. 14.0 TT = JDT 2456000.5 MPC
M 30.70393 (2000.0) P Q
n 0.24099386 Peri. 8.38567 +0.97097833 +0.21449338
a 2.5574004 Node 338.32854 -0.23267742 +0.74482113
e 0.9121507 Incl. 16.64859 -0.05533810 +0.63184972
P 4.09 H 19.3 G...
|
Blobrana
|
0
|
|
|
|
|
Asteroid 2012 BO123
(Preview)
Orbital elements:
2012 BO123 Earth MOID = 0.0963 AU
Epoch 2012 Mar. 14.0 TT = JDT 2456000.5 MPC
M 11.85038 (2000.0) P Q
n 0.79386188 Peri. 208.30346 -0.87656169 -0.35592496
a 1.1551528 Node 307.08569 +0.48128800 -0.64992784
e 0.0715958 Incl. 23.96092 -0.00120966 -0.67149923
P 1.24 H 24....
|
Blobrana
|
0
|
|
|
|
|
Asteroid 2012 BC102
(Preview)
Orbital elements:
2012 BC102 Earth MOID = 0.0107 AU
Epoch 2012 Mar. 14.0 TT = JDT 2456000.5 MPC
M 10.91801 (2000.0) P Q
n 0.44692932 Peri. 23.06164 -0.87211426 -0.36380144
a 1.6942474 Node 131.29298 +0.35289986 -0.93088671
e 0.4261409 Incl. 25.81690 +0.33893717 +0.03314290
P 2.21 H 23.9...
|
Blobrana
|
1
|
|
|